Location: Godiavel Galaoual
(15.2485°N, 12.6604°W)
Time: 09:24:36
(UTC+00:00)

S-56A Canister/Altair - Visible Passes

Search period start: 15 June 2021 00:00
Search period end: 25 June 2021 00:00
Orbit: 632 x 2500 km, 38.9° (Epoch: 14 June)

Date Brightness Start Highest point End Pass type
(mag) Time Alt. Az. Time Alt. Az. Time Alt. Az.
15 Jun 8.1 05:04:26 24° W 05:06:22 34° NW 05:10:31 10° NNE visible
16 Jun 7.7 04:33:32 43° NW 04:33:50 44° NW 04:38:06 10° NE visible
17 Jun 8.2 04:02:37 41° NNE 04:02:37 41° NNE 04:05:40 10° NE visible
18 Jun 9.4 03:31:39 23° NE 03:31:39 23° NE 03:33:16 10° NE visible
18 Jun 9.7 05:32:47 10° NNW 05:33:01 10° NNW 05:33:15 10° NNW visible
19 Jun 10.2 03:00:39 11° NE 03:00:39 11° NE 03:00:52 10° NE visible
19 Jun 9.5 04:58:20 10° NW 05:00:15 12° NNW 05:02:08 10° N visible
20 Jun 9.3 04:27:03 15° NW 04:27:33 16° NNW 04:30:16 10° N visible
21 Jun 9.3 03:56:00 18° NNW 03:56:00 18° NNW 03:58:15 10° NNE visible
22 Jun 9.8 03:24:56 16° N 03:24:56 16° N 03:26:11 10° NNE visible
23 Jun 10.3 02:53:49 11° NNE 02:53:49 11° NNE 02:54:03 10° NNE visible
